[[{"header":{"parameterUnit":"m.s-1","parameterCategory":1,"la1":30.2992,"la2":30.254,"lo1":-89.0895,"lo2":-89.0443,"dy":0.0025,"dx":0.0025,"nx":19,"ny":19,"refTime":"2026-04-19T21:00:00:Z","depth":0,"parameterNumber":2,"parameterNumberName":"U-component_of_WINDS"},"data":[0,0,0,-1.8233,-1.8234,-1.8298,-1.8298,-1.8386,-1.8387,0,0,0,0,0,0,0,0,0,0,0,-1.8218,-1.8218,-1.8233,-1.8234,-1.8298,-1.8298,-1.8386,-1.8387,0,0,0,0,0,0,0,0,0,0,0,-1.8217,-1.8218,-1.8219,-1.8235,-1.8298,-1.8298,-1.8386,-1.8336,0,0,0,0,0,0,0,0,0,0,-1.8273,-1.8263,-1.8218,-1.8219,-1.8235,-1.8298,-1.8298,-1.8333,-1.8339,-1.836,0,-1.838,0,-1.8385,-1.8394,-1.8394,0,0,0,-1.8232,-1.8258,-1.8271,-1.8219,-1.8236,-1.8298,-1.8269,-1.8336,-1.8343,-1.8368,-1.8382,-1.8385,-1.8387,-1.8394,-1.8395,-1.8528,-1.8528,0,0,-1.8228,-1.8231,-1.8267,-1.8276,-1.8266,-1.8267,-1.8271,-1.834,-1.8355,-1.8382,-1.8387,-1.8388,-1.8395,-1.8396,-1.8527,-1.8528,0,0,0,-1.822,-1.8229,-1.8241,-1.8272,-1.8283,-1.8268,-1.8273,-1.8352,-1.8356,-1.8388,-1.8389,-1.8395,-1.8397,-1.8526,-1.8527,-1.8569,0,0,0,-1.8217,-1.8224,-1.8239,-1.8242,-1.8282,-1.8319,-1.8284,-1.8351,-1.8359,-1.8389,-1.8395,-1.8397,-1.8525,-1.8527,-1.8566,-1.8588,0,0,0,-1.8212,-1.8224,-1.8234,-1.8242,-1.827,-1.8317,-1.8325,-1.8352,-1.836,-1.8394,-1.8398,-1.8525,-1.8527,-1.8563,-1.8583,-1.8624,0,0,0,-1.8208,-1.827,-1.8235,-1.8305,-1.8269,-1.8342,-1.8324,-1.8378,-1.8412,-1.8396,-1.8525,-1.8527,-1.8562,-1.8581,-1.8621,-1.866,-1.8676,0,0,-1.8288,-1.828,-1.8321,-1.8291,-1.8371,-1.8332,-1.8418,-1.8446,-1.8446,-1.85,-1.8504,-1.8567,-1.8583,-1.8624,-1.8763,-1.8776,0,0,0,-1.8347,-1.8377,-1.8397,-1.843,-1.8452,-1.8474,-1.8488,-1.8498,-1.8544,-1.8475,-1.8592,-1.8601,-1.8625,-1.8643,-1.8654,-1.8674,-1.8536,-1.8535,-1.8535,-1.8468,-1.8464,-1.8531,-1.8535,-1.8566,-1.858,-1.8606,-1.8622,-1.8609,-1.8636,-1.8653,-1.8738,-1.8759,-1.8767,-1.8789,-1.8672,-1.8672,-1.8672,-1.8672,-1.8586,-1.8627,-1.8608,-1.8666,-1.8662,-1.8711,-1.8726,-1.8715,-1.876,-1.8725,-1.8746,-1.8709,-1.8782,-1.88,-1.8676,-1.8675,-1.8675,-1.8674,-1.8674,-1.8665,-1.8684,-1.8695,-1.8741,-1.8777,-1.8778,-1.8822,-1.8816,-1.8811,-1.8831,-1.8848,-1.8848,-1.8847,-1.884,-1.884,-1.884,-1.8841,-1.8841,-1.8841,-1.8743,-1.8754,-1.8792,-1.882,-1.884,-1.8865,-1.8879,-1.8898,-1.8918,-1.891,-1.891,-1.8895,-1.8789,-1.8763,-1.8846,-1.8845,-1.8844,-1.8844,-1.8843,-1.8867,-1.8838,-1.8896,-1.8916,-1.8949,-1.8985,-1.8976,-1.9016,-1.903,-1.9052,-1.9032,-1.8954,-1.8945,-1.8937,-1.8915,-1.9032,-1.9032,-1.9032,-1.9032,-1.8934,-1.8929,-1.8987,-1.9019,-1.905,-1.9047,-1.9114,-1.9124,-1.9131,-1.914,-1.9121,-1.9092,-1.9083,-1.908,-1.9068,-1.9048,-1.9196,-1.9196,-1.9196,-1.901,-1.9007,-1.9065,-1.9071,-1.9095,-1.9117,-1.9179,-1.9216,-1.9217,-1.9203,-1.9147,-1.914,-1.9092,-1.9077,-1.9062,-1.9044,-1.9007,0,0]},{"header":{"parameterUnit":"m.s-1","parameterCategory":1,"la1":30.2992,"la2":30.254,"lo1":-89.0895,"lo2":-89.0443,"dy":0.0025,"dx":0.0025,"nx":19,"ny":19,"refTime":"2026-04-19T21:00:00:Z","depth":0,"parameterNumber":3,"parameterNumberName":"V-component_of_WINDS"},"data":[0,0,0,-7.1298,-7.1301,-7.1424,-7.1424,-7.1581,-7.1583,0,0,0,0,0,0,0,0,0,0,0,-7.1264,-7.1266,-7.1298,-7.1301,-7.1424,-7.1424,-7.1581,-7.1583,0,0,0,0,0,0,0,0,0,0,0,-7.1264,-7.1265,-7.1267,-7.1301,-7.1423,-7.1424,-7.158,-7.1487,0,0,0,0,0,0,0,0,0,0,-7.1367,-7.134,-7.1265,-7.1267,-7.1302,-7.1423,-7.1424,-7.1482,-7.1493,-7.1526,0,-7.156,0,-7.1574,-7.1593,-7.1594,0,0,0,-7.1297,-7.1332,-7.1363,-7.1267,-7.1303,-7.1423,-7.1367,-7.1488,-7.15,-7.154,-7.1562,-7.1568,-7.1577,-7.1594,-7.1595,-7.1809,-7.181,0,0,-7.1291,-7.1287,-7.1355,-7.137,-7.1355,-7.1363,-7.1371,-7.1495,-7.1517,-7.1563,-7.1572,-7.1579,-7.1595,-7.1597,-7.1808,-7.1809,0,0,0,-7.1273,-7.1282,-7.131,-7.1364,-7.1386,-7.1367,-7.1376,-7.1512,-7.1522,-7.1573,-7.1581,-7.1596,-7.1598,-7.1807,-7.1809,-7.1865,0,0,0,-7.1269,-7.1273,-7.1308,-7.1307,-7.1384,-7.1451,-7.139,-7.1513,-7.1527,-7.158,-7.1596,-7.16,-7.1806,-7.1808,-7.186,-7.1891,0,0,0,-7.1255,-7.1271,-7.129,-7.1306,-7.1359,-7.1449,-7.1466,-7.1516,-7.1532,-7.1594,-7.16,-7.1805,-7.1807,-7.1857,-7.1885,-7.1948,0,0,0,-7.1238,-7.1335,-7.1291,-7.1402,-7.1358,-7.1484,-7.1465,-7.1558,-7.1618,-7.1597,-7.1806,-7.1808,-7.1856,-7.1881,-7.1944,-7.2001,-7.2025,0,0,-7.1358,-7.1349,-7.1415,-7.1379,-7.1513,-7.1466,-7.1606,-7.1662,-7.1669,-7.1761,-7.1766,-7.1862,-7.1884,-7.1947,-7.2157,-7.2175,0,0,0,-7.1452,-7.1499,-7.1535,-7.1595,-7.1642,-7.1685,-7.1721,-7.1742,-7.1821,-7.1717,-7.1901,-7.1915,-7.1952,-7.1979,-7.1995,-7.2027,-7.1821,-7.1821,-7.182,-7.1615,-7.1623,-7.1733,-7.1756,-7.1813,-7.185,-7.1897,-7.1931,-7.1918,-7.1962,-7.1989,-7.2116,-7.2148,-7.216,-7.2193,-7.2019,-7.202,-7.202,-7.202,-7.1792,-7.1861,-7.1847,-7.1948,-7.1955,-7.2038,-7.2078,-7.2067,-7.2145,-7.2095,-7.2128,-7.2073,-7.2181,-7.221,-7.2024,-7.2024,-7.2023,-7.2023,-7.2022,-7.1901,-7.1935,-7.1962,-7.205,-7.2116,-7.2135,-7.2212,-7.2214,-7.2215,-7.2248,-7.2278,-7.2277,-7.2277,-7.2262,-7.2263,-7.2263,-7.2264,-7.2264,-7.2264,-7.2002,-7.2031,-7.2098,-7.216,-7.2199,-7.2251,-7.2291,-7.2329,-7.237,-7.2365,-7.2366,-7.2349,-7.219,-7.215,-7.2271,-7.227,-7.2269,-7.2268,-7.2268,-7.218,-7.2141,-7.2244,-7.2285,-7.2358,-7.2424,-7.2427,-7.2504,-7.2535,-7.2573,-7.2551,-7.2433,-7.2422,-7.2409,-7.2377,-7.2549,-7.2549,-7.2549,-7.2549,-7.2272,-7.2268,-7.2376,-7.244,-7.2503,-7.2517,-7.2632,-7.2664,-7.269,-7.271,-7.2685,-7.2641,-7.2628,-7.2626,-7.2608,-7.2578,-7.2797,-7.2797,-7.2798,-7.2382,-7.2385,-7.2484,-7.2514,-7.2571,-7.262,-7.2729,-7.2801,-7.2822,-7.2808,-7.2725,-7.2715,-7.2644,-7.2621,-7.2604,-7.2577,-7.2521,0,0]}]]